Weather History for KSLE - November, 2012

Change the Weather History Date:

Sunday, November 4, 2012

  Actual Average Record
Temperature  
Mean Temperature 65 °F 48 °F  
Max Temperature 73 °F 56 °F 73 °F (2012)
Min Temperature 57 °F 40 °F 16 °F (1935)
Degree Days  
Heating Degree Days 0 17  
Month to date heating degree days 29 66  
Since 1 July heating degree days 429 598  
Cooling Degree Days 0 0  
Month to date cooling degree days 0 0  
Year to date cooling degree days 317 290  
Growing Degree Days 15 (Base 50)    
Moisture  
Dew Point 57 °F    
Average Humidity 77    
Maximum Humidity 97    
Minimum Humidity 57    
Precipitation  
Precipitation 0.00 in 0.18 in 1.93 in (1969)
Month to date precipitation 0.63 0.67  
Year to date precipitation 38.71 26.98  
Snow  
Snow 0.00 in - - ()
Month to date snowfall 0.0  
Snow Depth 0.00 in    
Sea Level Pressure  
Sea Level Pressure 30.26 in    
Wind  
Wind Speed 8 mph (South)    
Max Wind Speed 18 mph    
Max Gust Speed 23 mph    
Visibility 10 miles    
Events      
T = Trace of Precipitation, MM = Missing Value Source: NWS Daily Summary

Daily Weather History Graph

Daily Weather History Graph

Search for Another Location

Airport or City:

Trip Planner

Search our weather history database for the weather conditions in past years. The results will help you decide how hot, cold, wet, or windy it might be!

Date:

Astronomy

Nov. 04, 2012 Rise Set
Actual Time 6:55 AM PST 4:55 PM PST
Civil Twilight 6:24 AM PST 5:26 PM PST
Nautical Twilight 5:49 AM PST 6:01 PM PST
Astronomical Twilight 5:15 AM PST 6:35 PM PST
Moon 9:36 PM PST (11/4) 11:45 AM PST (11/4)
Length of Visible Light 11h 01m
Length of Day
10h 00m
Waning Gibbous, 71% of the Moon is Illuminated
Nov 4
Waning Gibbous
Nov 6
Last Quarter
Nov 13
New
Nov 20
First Quarter
Nov 28
Full

Hourly Weather History & Observations

Time (PST) Temp. Dew Point Humidity Pressure Visibility Wind Dir Wind Speed Gust Speed Precip Events Conditions
12:56 AM 57.0 °F 55.9 °F 96% 30.18 in 10.0 mi SE 3.5 mph - N/A   Overcast
1:56 AM 57.9 °F 55.9 °F 93% 30.19 in 10.0 mi SSE 8.1 mph - N/A   Overcast
1:56 AM 57.0 °F 55.9 °F 96% 30.19 in 10.0 mi SSE 3.5 mph - N/A   Overcast
2:56 AM 57.9 °F 55.9 °F 93% 30.19 in 10.0 mi SSE 5.8 mph - N/A   Overcast
3:56 AM 59.0 °F 57.0 °F 93% 30.19 in 10.0 mi Calm Calm - N/A   Overcast
4:56 AM 59.0 °F 57.0 °F 93% 30.21 in 10.0 mi SE 4.6 mph - N/A   Overcast
5:56 AM 59.0 °F 55.9 °F 90% 30.20 in 10.0 mi South 6.9 mph - N/A   Overcast
6:56 AM 60.1 °F 55.9 °F 86% 30.22 in 10.0 mi South 8.1 mph - N/A   Overcast
7:56 AM 61.0 °F 55.9 °F 83% 30.26 in 10.0 mi South 8.1 mph - N/A   Overcast
8:56 AM 63.0 °F 55.9 °F 78% 30.27 in 10.0 mi South 11.5 mph - N/A   Overcast
9:56 AM 64.0 °F 57.0 °F 78% 30.27 in 10.0 mi South 15.0 mph - N/A   Mostly Cloudy
10:56 AM 68.0 °F 57.0 °F 68% 30.29 in 10.0 mi South 13.8 mph 20.7 mph N/A   Mostly Cloudy
11:56 AM 70.0 °F 57.9 °F 65% 30.29 in 10.0 mi South 15.0 mph 19.6 mph N/A   Scattered Clouds
12:56 PM 71.1 °F 57.9 °F 63% 30.28 in 10.0 mi South 15.0 mph - N/A   Clear
1:56 PM 72.0 °F 57.0 °F 59% 30.29 in 10.0 mi South 10.4 mph 19.6 mph N/A   Clear
2:56 PM 73.0 °F 57.9 °F 59% 30.29 in 10.0 mi South 10.4 mph - N/A   Scattered Clouds
3:56 PM 71.1 °F 57.9 °F 63% 30.29 in 10.0 mi South 3.5 mph - N/A   Scattered Clouds
4:56 PM 66.9 °F 59.0 °F 76% 30.29 in 10.0 mi SW 3.5 mph - N/A   Partly Cloudy
5:56 PM 62.1 °F 59.0 °F 90% 30.31 in 10.0 mi WSW 5.8 mph - N/A   Clear
6:56 PM 61.0 °F 59.0 °F 93% 30.31 in 10.0 mi WSW 3.5 mph - N/A   Clear
7:56 PM 59.0 °F 57.0 °F 93% 30.32 in 10.0 mi SSE 5.8 mph - N/A   Clear
8:56 PM 59.0 °F 57.9 °F 96% 30.32 in 10.0 mi SSW 5.8 mph - N/A   Scattered Clouds
9:56 PM 57.0 °F 55.9 °F 96% 30.33 in 10.0 mi South 5.8 mph - N/A   Scattered Clouds
10:56 PM 59.0 °F 57.9 °F 96% 30.33 in 10.0 mi SSE 3.5 mph - N/A   Overcast